Theta_e
319 319 320 321 322 324 324 324 324 323 323 323 321 321 324 321 315 316 323 330 330 329 327 325 323 321 318 316 316 315 313 312 312 311 310 309 309 308 307 308 309 309 309 311 312 312 313 313 313 314 315 314 314 315 315 315 315 314 315 317 319 319 319 320 320 322 323 324 325 326 326 326 327 328 328 328 328 329 329 329 329 330 330 330 331 331 330
320 320 320 322 323 323 324 325 325 324 324 325 325 326 328 327 322 323 329 332 330 327 325 323 320 318 315 314 313 312 312 311 311 310 309 308 309 308 307 307 308 309 310 311 312 312 312 312 313 313 314 313 314 314 314 314 313 313 314 316 318 318 319 319 320 321 322 323 324 325 326 326 326 327 327 327 327 328 328 329 329 329 329 329 329 329 329
321 321 321 322 323 324 324 324 324 325 325 326 327 327 328 327 328 330 332 331 325 319 318 317 315 314 313 311 311 311 311 310 309 308 307 307 307 307 306 307 307 307 309 310 310 311 312 311 312 313 312 313 313 313 313 313 313 314 315 315 316 317 318 319 319 320 322 323 323 324 325 325 325 325 325 325 325 326 327 327 327 327 327 327 326 326 328
321 322 322 323 324 324 324 323 323 324 326 325 324 324 326 328 330 332 331 330 324 316 313 313 312 312 312 310 309 309 308 308 307 306 306 307 306 306 306 306 306 306 308 308 308 310 310 310 311 311 311 312 313 312 312 312 313 314 316 316 316 317 317 318 319 319 321 322 323 323 324 325 325 324 324 325 325 325 325 325 325 325 326 325 325 326 326
321 322 322 324 324 322 322 321 319 321 323 323 322 322 322 323 328 329 327 325 320 314 312 312 311 311 310 309 308 307 307 306 306 305 306 306 305 305 305 305 306 306 307 308 308 308 308 309 310 310 310 310 311 311 311 312 312 314 316 316 316 315 316 317 318 319 320 321 322 322 323 323 323 323 323 323 323 324 324 324 324 325 325 324 324 325 325
322 322 322 323 322 320 320 316 314 317 320 321 322 321 319 318 320 321 320 318 315 313 313 312 310 309 307 306 307 306 306 306 305 305 305 305 305 305 305 306 306 307 307 307 307 307 307 307 308 309 309 309 309 310 310 311 312 314 315 316 315 315 314 315 316 317 319 320 320 321 321 320 321 321 321 320 321 322 322 322 322 323 324 323 323 323 323
321 320 321 322 322 320 316 313 313 315 317 318 318 318 316 317 317 316 315 314 313 313 312 309 307 306 304 304 305 305 305 305 305 305 304 304 304 305 305 305 306 307 307 306 306 306 306 306 307 308 309 309 309 310 310 311 312 313 314 315 314 314 313 313 314 315 317 319 320 319 319 318 317 318 318 318 318 319 320 319 318 319 320 320 320 319 319
320 319 320 321 320 317 314 314 314 314 316 317 318 318 317 316 316 315 314 311 310 309 307 306 305 304 303 303 303 303 303 303 303 304 303 303 304 305 305 305 306 307 306 305 305 305 305 306 307 308 308 308 309 310 310 311 312 313 313 314 314 313 311 310 312 314 316 317 319 318 318 317 316 315 315 315 316 316 317 317 316 316 315 315 316 316 316
319 320 319 318 318 318 317 316 315 315 316 318 318 320 318 315 315 314 312 309 307 306 305 304 304 304 304 303 303 302 302 302 302 303 303 302 303 303 304 304 305 306 305 305 304 304 306 306 307 308 308 308 308 309 309 310 311 312 313 313 313 312 311 310 311 313 314 316 317 317 317 316 315 314 314 314 313 314 315 315 315 314 314 314 314 315 316
318 319 319 317 318 319 319 317 316 315 316 317 317 319 318 315 314 314 311 309 306 305 304 304 304 307 308 306 303 302 301 301 302 302 302 302 302 303 303 304 305 305 305 305 304 305 306 306 307 307 307 307 308 308 309 310 311 311 311 312 313 312 311 310 311 311 313 314 315 315 315 314 314 313 313 313 312 313 314 315 314 313 313 314 314 315 315
317 318 318 318 318 317 317 317 315 313 314 315 316 319 319 315 313 313 312 309 306 305 305 305 307 311 312 307 302 302 301 301 302 302 302 302 301 302 303 304 305 305 305 304 305 305 306 306 307 307 307 307 307 307 308 309 310 310 311 311 312 312 311 311 310 310 311 313 314 314 314 313 313 312 312 312 312 312 313 314 314 314 313 314 314 314 314
317 317 315 315 317 316 315 315 313 312 313 314 316 318 318 314 312 312 312 310 307 306 306 306 308 311 311 306 302 301 301 301 302 302 302 301 301 301 302 303 304 304 304 304 304 305 306 306 307 307 307 307 306 307 308 309 309 309 309 310 311 311 311 310 309 309 310 311 311 312 312 312 312 312 311 311 311 311 312 312 313 314 314 313 313 313 313
315 315 314 314 315 314 314 314 312 311 313 315 317 316 315 312 311 311 310 309 308 306 306 307 305 305 305 303 300 300 301 301 301 301 301 301 301 301 301 302 303 304 304 304 304 304 305 306 306 307 307 306 306 307 307 308 308 308 309 309 310 310 310 310 308 307 308 309 310 310 310 310 310 310 311 311 310 311 311 311 312 313 313 313 312 311 312
314 314 313 313 313 312 312 312 311 312 315 317 315 312 310 310 310 309 308 308 307 306 305 304 302 301 301 300 300 300 300 301 301 301 301 302 301 301 301 301 302 304 304 304 304 304 304 305 305 306 306 306 305 306 307 307 307 308 308 308 309 309 309 309 308 307 307 308 308 308 308 308 308 308 308 309 309 309 310 311 311 311 311 311 310 309 309
313 313 313 312 312 311 310 311 312 313 314 313 310 308 308 309 308 308 307 305 305 304 303 301 301 301 300 300 300 300 300 301 301 301 301 301 301 301 301 301 302 303 303 303 303 303 303 304 305 306 306 305 305 306 306 306 307 307 308 308 308 308 308 308 307 307 306 307 307 307 308 308 307 306 306 306 307 307 308 308 308 308 308 308 308 307 307
312 312 312 311 309 309 309 311 312 311 310 309 309 309 308 307 306 306 305 303 303 302 301 300 300 300 300 300 300 299 300 300 301 300 300 300 300 301 301 301 301 302 302 303 302 303 303 303 304 305 305 305 305 305 305 305 306 307 307 307 307 307 307 307 307 306 306 305 304 305 306 307 307 306 305 304 305 305 305 306 306 306 306 306 305 305 305
310 312 310 306 305 307 307 307 308 308 307 308 308 309 307 306 306 304 303 302 302 301 300 300 300 300 300 300 299 299 300 300 300 299 299 299 299 299 300 300 301 301 302 302 302 302 302 303 303 304 304 304 304 304 304 304 305 306 306 306 306 306 306 306 306 306 305 304 303 302 302 303 304 303 303 303 303 303 303 304 304 304 304 304 303 303 303
306 307 305 304 305 306 306 305 306 307 307 307 307 307 307 306 305 304 302 302 301 301 301 300 300 300 300 299 299 299 299 300 299 299 299 298 299 299 300 301 301 301 302 302 302 302 302 302 303 304 304 304 304 304 304 303 304 305 305 305 305 305 305 305 305 305 304 304 303 302 301 300 300 300 300 301 301 301 301 302 302 302 303 303 303 302 302
308 308 305 304 306 306 305 305 305 305 306 306 306 306 306 305 304 303 302 301 301 301 301 300 300 300 299 299 299 299 299 299 299 299 299 299 299 300 300 301 302 302 302 302 302 302 303 303 303 303 303 303 303 303 303 303 303 303 304 304 304 304 304 304 304 303 302 302 301 301 300 300 299 298 298 299 299 299 299 300 300 300 301 301 301 301 300
308 307 304 304 305 305 304 305 304 305 305 305 305 304 304 303 303 302 302 301 301 301 301 300 300 300 299 299 299 299 299 300 299 299 299 298 299 299 300 301 301 302 302 302 303 303 303 302 302 303 303 303 303 303 303 303 302 303 303 303 304 304 303 303 303 302 302 301 300 299 298 298 298 297 297 297 298 298 298 298 298 299 299 299 299 299 299
305 305 304 303 304 304 303 303 303 303 304 304 303 303 303 302 301 301 301 301 301 301 301 300 300 299 299 300 300 299 299 299 299 299 298 298 299 299 299 300 301 301 301 302 302 302 302 302 302 302 302 302 302 303 303 303 303 302 302 302 303 303 303 303 302 302 302 302 301 300 299 297 297 297 297 298 298 298 298 298 298 298 298 298 297 297 298
307 306 305 305 306 306 304 303 302 302 302 302 302 302 301 301 300 300 300 300 301 301 301 301 300 300 299 300 300 300 299 299 299 298 298 298 299 299 299 300 300 300 301 301 301 302 302 302 301 301 301 302 302 302 302 303 303 303 302 302 302 302 302 302 302 302 302 302 301 301 300 299 298 298 298 298 299 299 299 298 298 297 297 297 297 297 297
308 307 305 305 306 305 302 301 301 301 301 301 301 301 300 300 300 300 300 300 300 300 301 300 300 300 300 300 300 300 299 299 298 298 297 298 298 299 299 299 300 300 300 301 301 301 301 301 301 301 301 301 301 302 302 302 302 303 303 302 301 301 301 301 302 302 302 302 301 301 301 301 300 299 299 299 299 299 299 299 299 298 298 297 297 297 297
306 305 304 304 304 303 301 301 300 300 301 301 300 300 300 300 300 301 300 300 300 300 300 300 300 300 300 300 299 299 299 299 298 298 298 297 298 298 299 299 299 300 300 300 301 301 301 301 301 301 301 301 301 302 302 302 302 302 302 302 302 301 301 300 301 301 301 301 301 301 301 301 301 300 300 299 299 298 298 298 299 299 299 299 298 297 297
305 304 304 303 302 301 300 300 300 300 301 301 300 300 300 300 301 301 300 300 300 299 299 299 299 299 299 298 298 298 298 298 298 298 298 297 297 298 299 299 299 299 299 300 300 300 300 300 300 300 300 300 301 301 302 302 302 302 302 302 301 301 301 301 301 300 300 301 301 301 301 301 301 300 300 300 300 299 298 298 298 299 299 299 299 298 298
303 302 301 301 300 300 300 300 300 300 300 300 300 300 300 300 300 300 299 299 299 299 299 299 298 298 298 298 298 298 298 298 298 297 297 297 297 298 298 299 299 299 299 299 300 300 299 299 300 300 300 300 301 301 301 301 302 301 301 301 300 300 301 301 301 300 300 300 300 300 300 300 300 300 299 299 299 299 299 299 299 298 298 298 298 298 299
301 301 300 300 300 300 300 299 299 299 299 299 299 299 299 298 298 298 298 298 298 298 298 298 298 298 298 298 298 297 297 298 298 298 297 297 297 298 298 298 298 299 299 299 299 299 299 299 299 299 300 300 300 300 300 301 301 301 301 300 300 300 300 300 300 300 300 300 299 299 299 299 299 299 299 299 299 299 299 299 299 299 298 298 297 296 297
301 301 301 300 300 299 299 299 298 298 298 298 298 298 298 297 297 297 297 297 297 297 297 297 297 298 298 298 298 298 298 298 298 298 297 297 298 298 298 298 298 298 298 298 298 298 299 299 299 299 299 299 299 299 299 300 300 300 300 300 300 300 300 300 300 300 299 299 299 299 299 299 298 298 297 297 297 298 298 298 299 299 299 298 298 297 296
299 300 300 299 299 299 298 297 297 297 297 297 298 298 297 297 296 296 296 297 297 297 297 297 297 297 297 298 298 298 298 298 298 297 297 297 298 297 297 298 298 298 298 298 298 298 298 299 299 299 299 299 299 299 299 299 299 299 299 299 300 300 300 299 299 299 299 298 298 298 298 298 298 297 297 297 297 297 297 297 298 298 298 299 298 298 297
298 298 298 298 298 298 297 297 297 297 297 298 297 297 297 296 296 295 296 296 296 297 296 296 296 296 297 298 298 298 298 298 298 298 298 298 298 298 298 298 298 298 298 298 298 298 298 298 299 299 298 298 299 299 299 299 299 298 298 298 298 298 298 299 299 298 298 298 298 298 297 297 297 297 297 297 297 297 297 297 298 298 298 298 298 298 298
298 298 298 297 298 298 297 297 297 297 297 297 297 296 296 296 296 296 296 297 297 297 296 296 296 296 297 298 299 299 299 298 298 297 298 298 298 298 298 298 298 298 298 298 298 298 298 298 298 298 298 298 298 299 299 299 298 298 298 297 297 296 297 297 298 298 298 298 298 297 297 297 297 297 297 297 297 297 297 297 298 298 298 298 297 297 297
298 298 298 298 298 297 297 298 298 297 297 297 297 297 297 297 297 297 297 298 298 297 297 296 295 295 297 298 299 298 298 298 298 298 298 298 298 298 298 298 298 298 298 298 298 298 298 298 298 298 298 298 298 298 298 298 298 298 298 297 297 296 296 297 297 297 297 297 297 297 297 297 297 297 297 296 296 296 296 297 297 297 297 297 297 296 296
299 298 298 298 298 297 297 298 298 297 297 297 297 297 297 298 298 298 298 298 298 297 296 295 295 295 297 298 298 298 298 298 298 298 297 297 297 297 297 297 297 297 297 297 297 297 298 298 298 298 298 298 298 298 298 299 298 298 298 297 297 297 296 297 297 297 297 297 297 296 296 296 297 297 296 296 296 296 296 296 296 296 296 297 296 295 294
299 299 299 299 299 298 298 298 298 297 297 297 298 298 297 297 298 297 297 297 297 296 296 295 295 296 297 298 298 298 298 297 297 297 297 296 296 296 296 297 297 297 297 297 297 298 298 298 298 298 298 298 298 298 298 298 298 298 298 298 297 297 297 297 297 297 297 297 297 296 296 296 296 296 296 296 296 296 296 296 296 296 296 296 296 295 294
300 300 299 299 299 299 299 298 298 297 297 297 298 298 298 297 297 297 297 297 296 296 295 294 295 296 297 297 297 297 297 296 296 295 295 295 295 295 296 297 298 298 298 298 298 298 297 297 297 298 298 298 298 298 298 298 298 298 298 298 297 297 297 297 297 297 297 297 296 296 296 296 296 296 296 296 296 296 296 296 296 296 296 295 295 295 295
300 300 300 300 300 299 299 299 298 298 298 298 298 298 298 297 297 297 297 297 296 296 295 294 295 296 296 296 295 295 294 294 293 293 293 293 294 294 295 296 297 298 298 297 297 297 297 296 297 297 298 298 298 297 297 298 298 298 297 298 297 297 297 297 297 297 297 296 296 296 296 296 296 296 296 296 296 296 296 296 295 295 296 295 295 295 295
300 300 300 300 299 299 299 299 298 298 298 298 298 298 298 297 297 297 297 296 296 295 295 294 294 295 295 294 294 293 293 293 292 291 291 292 292 293 294 295 297 297 297 297 297 297 297 296 297 297 298 298 297 297 296 297 298 298 298 298 298 298 298 298 298 297 297 297 296 296 296 296 296 296 296 296 296 296 296 295 295 295 295 295 295 295 295
300 300 300 300 299 299 300 299 299 299 299 298 298 298 298 298 297 297 296 296 296 295 295 294 294 294 294 294 294 294 294 294 293 291 290 291 292 293 294 296 297 298 297 296 296 297 297 296 297 298 298 298 297 297 296 296 297 298 298 298 298 298 298 298 298 297 297 297 296 296 296 296 296 296 296 296 296 295 295 295 295 295 295 295 295 295 295
300 300 300 300 300 300 300 299 299 299 298 299 299 298 298 297 297 297 296 296 296 295 295 295 294 294 294 295 295 294 294 293 292 291 290 290 291 293 294 295 296 296 295 296 296 297 296 296 298 298 298 298 298 297 296 296 297 298 298 298 298 298 298 298 297 297 297 297 296 296 296 296 296 296 296 295 295 295 295 295 295 295 295 295 295 295 295
300 300 300 300 300 300 299 300 300 299 299 298 298 298 298 297 297 297 296 296 296 296 295 295 295 295 295 295 295 295 294 293 291 290 289 290 291 293 294 295 295 294 294 295 297 296 295 296 298 298 298 298 298 297 296 296 297 297 298 297 297 298 298 297 297 297 297 297 296 296 296 296 296 295 295 295 295 295 295 295 295 295 295 295 295 295 295
300 300 300 300 300 299 299 300 300 300 300 299 298 298 297 297 297 297 296 296 296 296 296 296 296 296 296 296 296 295 295 294 293 292 292 292 294 295 295 295 294 294 294 295 295 295 294 296 298 298 297 297 297 296 296 296 297 297 297 297 297 297 297 297 297 297 297 297 297 296 296 296 296 295 295 295 295 295 295 295 295 295 295 295 295 295 295
300 300 300 300 300 300 300 300 300 300 300 299 298 298 298 298 297 297 296 296 296 297 297 297 297 297 297 297 297 296 296 296 295 295 295 295 296 297 296 295 294 294 293 293 294 294 294 296 297 297 297 297 296 295 295 297 297 297 297 297 297 297 297 297 297 297 297 296 296 296 296 296 296 296 295 295 295 295 295 295 295 295 294 294 294 294 294
300 300 300 300 300 300 300 300 300 300 300 299 298 298 298 298 298 298 297 297 297 297 297 297 297 297 297 297 297 297 297 297 296 296 296 296 296 296 297 296 295 294 293 293 294 295 295 296 296 296 296 296 295 294 295 297 298 297 297 297 297 297 297 297 297 297 297 296 296 296 296 296 296 296 296 296 295 295 295 295 295 295 294 294 294 294 294
300 300 300 300 300 300 300 300 300 300 299 299 298 298 298 298 298 298 298 297 297 297 297 297 297 297 297 297 297 297 297 297 297 297 297 297 297 296 296 296 295 294 293 293 295 295 296 297 296 294 293 293 293 293 294 296 297 297 297 297 297 297 297 297 297 297 297 296 296 296 296 296 296 296 296 296 295 295 295 295 295 295 294 294 294 294 294
301 301 301 300 301 301 300 300 300 300 299 299 299 298 298 298 298 298 298 298 298 298 298 297 297 297 297 297 297 298 298 298 298 298 298 298 299 298 297 295 295 294 293 293 294 295 296 296 296 294 293 293 293 293 294 296 297 296 296 297 297 297 297 297 297 296 297 296 296 296 296 296 296 296 296 296 295 295 295 295 295 295 294 294 294 294 294
301 301 301 301 300 300 299 299 300 300 299 299 299 298 298 298 298 298 298 298 298 298 298 298 298 298 297 298 298 298 298 298 298 298 298 299 299 298 297 296 295 295 293 293 294 295 296 296 294 293 294 294 293 294 295 297 297 296 296 297 296 296 296 296 296 296 296 296 296 296 296 296 296 295 295 295 295 295 295 295 295 295 295 294 294 294 294
301 302 301 300 300 300 300 300 300 300 299 299 298 298 298 298 298 298 298 298 298 298 298 298 298 298 298 298 298 298 298 298 298 298 298 298 298 297 296 296 296 295 295 294 294 295 295 295 294 294 294 293 293 294 296 297 296 296 296 296 296 296 296 296 296 296 296 296 296 296 295 295 296 295 295 295 295 295 295 295 295 295 294 294 294 294 294
302 301 301 300 300 300 300 299 299 299 299 299 298 298 298 298 298 298 298 298 298 298 298 298 298 298 298 298 298 298 298 299 299 299 299 298 298 298 297 297 296 296 296 295 295 295 295 295 294 294 294 293 293 294 296 296 296 296 296 296 296 296 296 296 296 296 296 296 296 296 296 296 296 296 296 296 295 295 295 295 294 294 294 294 294 294 294
301 301 301 301 301 300 300 299 299 299 299 299 299 298 298 298 298 298 298 298 298 298 298 298 298 298 298 298 298 298 298 299 299 299 299 299 299 299 298 298 297 297 297 297 297 297 296 295 294 294 294 294 294 294 295 296 296 296 296 296 296 296 296 296 296 296 296 296 296 296 296 296 296 296 296 295 295 295 295 295 294 294 294 293 293 293 293
301 301 301 301 300 300 299 299 299 299 299 299 299 299 299 298 298 299 298 298 298 298 298 298 298 299 299 299 298 298 299 299 299 299 299 299 299 299 299 299 299 298 298 298 298 299 298 296 295 294 294 293 294 295 295 296 296 296 296 296 296 296 295 295 295 294 295 295 295 296 296 296 295 295 295 295 295 295 295 295 294 294 293 293 293 293 293
301 301 300 300 299 299 299 299 299 299 299 299 299 299 299 299 299 299 299 298 298 298 298 299 299 299 299 299 299 299 299 299 299 299 299 299 299 299 299 299 299 299 298 298 299 299 299 298 297 296 294 294 294 295 295 296 296 296 296 296 296 296 296 295 295 294 295 295 295 295 295 295 295 295 295 295 295 295 295 295 294 294 294 294 294 293 293
301 300 300 300 299 299 299 299 299 299 299 299 299 299 299 299 299 299 299 299 299 299 299 299 299 299 299 299 299 299 299 299 299 299 299 299 299 299 299 299 299 299 299 299 299 299 299 298 298 297 296 295 294 295 295 295 295 295 296 296 296 296 296 295 295 295 295 295 295 295 295 295 295 295 295 295 295 295 295 295 294 294 294 294 294 293 293
Wind_Speed
5 4 3 2 4 6 6 7 8 6 4 5 8 5 2 4 6 5 8 10 9 12 15 13 12 12 12 13 12 10 10 10 11 11 10 9 7 6 6 6 6 5 5 6 8 9 10 11 12 12 12 12 13 14 14 14 14 14 14 14 13 13 13 13 13 12 11 11 9 8 7 7 6 6 6 7 8 10 12 14 16 16 16 15 12 12 15
7 5 3 3 6 9 9 8 7 6 5 3 5 5 4 2 1 5 12 12 9 7 11 13 12 12 12 13 11 11 11 11 12 12 10 9 7 6 6 5 5 5 6 7 8 9 10 11 12 12 12 12 13 13 13 13 13 14 14 13 13 14 14 14 13 12 12 12 9 7 6 6 6 5 5 6 7 9 11 13 13 11 10 12 12 11 11
6 4 4 4 6 9 10 10 7 7 7 7 7 6 4 3 5 10 15 14 8 4 8 13 13 12 13 13 12 11 10 10 12 11 10 9 7 5 4 4 5 5 6 8 9 10 10 11 11 11 12 12 11 12 12 12 12 13 13 13 13 14 14 14 14 13 13 13 10 8 8 7 6 5 4 4 3 5 7 9 9 8 9 12 11 10 12
4 3 5 7 8 9 10 10 8 6 6 6 6 5 4 3 6 13 12 9 6 6 9 12 12 12 13 13 12 11 9 10 11 10 9 8 6 4 4 5 5 6 7 8 9 9 10 10 11 11 12 12 12 12 12 11 11 12 13 13 14 15 15 15 15 14 13 13 11 11 10 9 8 5 4 4 2 3 4 4 6 7 9 11 11 13 16
6 5 5 7 8 8 7 6 5 5 5 6 6 6 6 8 2 7 6 5 8 11 11 12 12 12 12 11 10 10 10 10 10 9 9 8 5 4 5 4 5 6 6 7 8 8 9 9 10 11 11 11 11 12 12 11 10 11 13 13 14 15 16 16 16 15 14 13 12 12 12 11 9 7 5 4 2 1 1 3 7 8 10 11 12 15 16
6 6 5 5 7 7 3 2 2 3 3 4 5 5 7 9 6 5 7 8 12 12 11 12 12 12 11 10 9 9 9 9 9 9 9 6 4 5 4 4 6 6 6 6 7 8 9 9 9 9 10 10 11 11 11 11 11 11 12 14 15 15 15 16 16 16 15 15 14 13 12 10 9 7 6 5 4 3 2 4 7 10 11 12 13 15 13
6 6 5 7 7 4 1 1 1 1 2 5 8 8 7 7 8 10 11 11 12 11 10 11 13 13 13 12 11 10 9 8 9 9 8 5 3 4 5 5 6 6 6 6 7 7 9 9 9 9 10 11 11 11 11 11 12 11 12 14 16 16 15 15 16 17 16 15 14 13 11 10 9 8 7 7 7 6 6 7 8 10 10 10 11 12 12
6 6 6 6 3 2 2 2 3 3 4 7 7 7 6 6 7 9 11 11 11 12 13 12 13 15 15 13 11 9 8 8 8 8 6 4 3 4 5 6 6 6 6 6 6 7 8 8 8 10 11 11 11 12 12 12 13 13 13 14 16 16 16 16 16 17 17 16 15 14 12 11 10 9 8 8 9 9 9 10 10 11 12 12 11 9 9
3 6 5 3 3 3 3 3 4 4 4 4 2 3 5 6 5 8 11 12 12 12 13 13 13 13 13 11 9 7 8 8 7 7 6 4 3 4 6 7 7 6 6 6 6 7 7 8 9 10 10 10 11 12 13 14 14 15 15 16 17 17 17 17 16 16 17 16 15 14 13 12 11 10 10 9 8 9 11 12 13 14 15 15 14 12 11
3 5 5 3 4 5 3 5 6 5 2 1 1 1 5 6 6 8 11 13 13 13 12 12 13 11 8 7 5 5 7 7 7 8 7 5 3 4 6 7 7 7 7 7 6 6 7 9 10 10 10 10 11 13 14 14 15 15 16 17 19 18 17 17 15 15 16 16 16 15 14 12 11 10 10 9 9 9 12 14 14 14 15 16 15 14 13
4 5 6 6 4 2 4 7 8 5 3 1 2 3 4 6 7 8 11 13 13 13 12 12 11 8 5 5 4 5 7 7 8 8 7 5 4 5 7 8 8 8 7 7 7 8 9 10 10 10 10 12 12 14 14 14 15 16 17 18 19 18 17 16 15 14 14 15 16 16 14 13 12 11 10 10 9 10 13 17 18 16 16 17 17 16 14
5 6 6 3 2 4 5 8 7 6 3 1 4 6 4 7 8 8 10 13 13 12 13 11 6 2 3 6 6 6 8 9 9 8 7 6 5 6 8 9 9 8 8 8 10 10 10 9 9 9 10 12 14 14 15 15 16 16 16 17 18 18 16 16 16 15 13 14 15 16 15 14 13 12 11 11 11 11 12 15 19 20 19 20 21 20 17
5 6 5 3 4 4 6 7 7 5 3 3 5 3 3 7 9 8 9 11 12 12 11 8 3 4 6 11 10 8 9 10 11 10 8 7 6 8 9 9 8 8 8 9 10 9 9 9 9 9 10 13 15 15 15 16 17 16 15 16 17 18 17 17 18 17 16 15 14 15 15 14 14 14 14 12 11 11 11 12 17 23 24 23 24 24 21
3 4 5 4 3 2 4 7 6 3 2 2 2 2 4 8 10 9 10 10 11 11 9 8 8 10 13 15 13 10 9 10 11 11 9 8 8 9 10 9 8 8 9 10 10 9 9 9 10 10 11 13 14 14 15 17 16 15 15 16 18 19 19 19 19 19 21 21 18 15 15 16 17 17 17 15 14 13 12 13 16 21 22 21 22 23 23
2 4 5 3 2 3 5 8 6 1 2 2 4 5 7 9 10 10 11 10 10 11 12 12 13 14 15 14 13 12 11 10 11 10 9 8 8 8 9 9 8 7 9 9 9 9 9 9 10 10 11 13 14 14 15 15 14 14 16 16 18 20 21 22 21 20 22 25 25 23 22 22 22 20 18 18 17 17 17 19 20 20 18 16 17 18 19
2 5 3 1 3 5 5 4 3 4 4 3 5 7 8 9 9 9 9 9 10 12 14 15 14 14 14 13 13 12 11 11 11 10 9 8 7 7 7 6 6 7 8 9 9 9 9 10 11 11 12 14 14 15 15 14 13 14 15 16 18 19 21 23 24 23 24 26 28 29 30 30 30 28 25 24 22 20 19 20 22 22 20 20 21 21 20
2 3 4 3 4 6 5 4 5 7 6 5 6 8 9 9 9 9 9 10 12 13 15 15 14 13 13 13 13 12 11 11 10 9 8 8 6 6 6 5 6 8 9 9 10 10 10 10 11 12 13 15 16 16 15 13 13 14 15 16 18 19 20 22 23 23 24 26 28 32 34 36 36 35 33 33 31 27 23 21 20 21 23 27 29 28 27
5 6 6 5 5 6 6 6 6 6 6 6 8 9 9 9 9 9 10 12 13 13 14 14 14 13 14 14 13 12 11 11 10 9 9 8 6 5 5 5 7 10 11 11 10 10 10 10 11 12 13 14 15 15 14 14 14 14 15 17 18 19 20 21 21 21 22 22 24 27 30 34 38 38 37 37 35 33 30 28 26 24 24 26 27 28 30
4 3 5 5 5 6 6 6 6 6 7 8 8 8 9 10 11 11 12 14 14 14 14 14 15 15 14 14 13 11 10 11 11 10 10 8 7 6 6 7 9 11 11 11 11 11 11 12 12 12 13 14 14 14 14 14 15 15 16 17 17 18 19 19 20 21 21 21 22 24 26 29 33 36 38 39 38 36 33 32 32 30 27 26 25 27 28
2 4 6 6 5 6 5 5 6 7 8 9 9 10 11 12 13 14 15 15 14 13 14 15 16 16 14 14 13 11 11 12 12 11 10 9 8 8 8 9 10 12 12 12 12 13 13 14 14 14 13 13 13 14 14 15 16 17 17 17 17 17 18 18 19 19 20 20 21 24 28 32 32 31 31 33 35 34 32 31 31 29 26 25 25 26 27
5 5 7 7 6 6 5 5 6 7 8 10 12 13 14 15 15 15 16 16 15 15 16 16 16 16 15 15 15 13 12 12 12 11 11 10 9 9 10 10 11 12 13 13 13 14 14 15 15 15 15 13 13 13 14 14 15 16 17 17 17 17 16 17 17 17 17 18 19 20 25 30 32 31 28 27 28 29 28 28 27 26 25 24 24 25 26
3 5 9 8 5 5 5 6 8 9 10 12 14 14 15 15 15 15 16 16 17 18 18 18 17 15 14 16 17 16 13 13 12 12 11 10 10 10 10 11 12 13 13 14 14 14 14 14 15 15 15 14 13 12 12 13 14 14 16 17 18 18 17 16 16 16 16 17 17 18 19 21 25 27 28 28 28 27 26 25 25 25 25 23 22 23 25
2 7 11 7 4 7 8 9 10 10 10 12 14 15 15 15 15 16 16 16 17 16 17 19 18 16 16 18 19 17 15 14 14 13 12 11 10 11 11 12 13 13 13 14 14 14 14 13 14 14 14 14 13 12 11 12 13 14 14 15 16 17 17 16 15 15 16 16 16 17 17 17 18 20 23 26 27 27 25 24 23 23 22 21 20 20 20
7 9 10 7 7 10 11 11 12 11 11 12 14 14 15 15 16 17 16 16 17 16 15 16 17 17 17 18 17 17 16 15 13 13 12 12 12 12 12 13 13 12 12 13 14 14 13 13 13 14 14 14 13 12 11 11 13 13 14 15 15 16 16 16 15 15 16 16 16 16 16 16 16 16 17 19 22 23 23 23 23 23 22 20 19 18 18
8 9 9 10 12 13 12 11 12 12 13 14 13 13 16 17 18 19 18 16 17 17 15 14 13 13 14 14 13 13 14 14 13 13 12 12 12 13 13 13 13 12 12 13 14 14 14 14 14 14 14 14 13 12 11 12 13 14 14 14 15 14 14 14 15 16 16 15 15 15 15 15 14 15 14 14 16 18 19 20 22 24 24 23 21 19 18
11 12 13 14 15 13 12 12 11 12 15 17 14 15 18 19 19 20 19 18 18 18 16 15 13 12 12 12 12 13 13 13 12 12 12 13 13 13 14 13 13 13 13 13 14 14 15 15 15 15 15 14 13 13 13 13 13 14 14 15 15 15 14 13 14 15 15 15 15 15 15 15 14 15 15 15 14 13 14 15 17 20 23 25 24 22 21
13 14 15 15 13 11 10 12 13 14 17 18 16 17 18 18 18 19 19 19 19 17 15 14 14 13 13 13 13 15 14 13 12 12 13 14 14 14 14 14 13 13 14 13 14 14 14 14 15 15 14 14 13 14 14 14 14 14 14 14 14 14 14 13 13 13 14 14 14 15 14 14 14 14 13 13 13 12 12 12 13 14 16 19 21 22 22
11 10 10 11 12 13 13 15 17 18 17 16 16 18 18 18 18 17 16 16 16 15 14 13 13 13 13 13 14 15 14 13 13 13 13 14 14 13 13 13 13 13 13 13 13 13 13 13 14 14 14 14 14 14 14 14 14 14 13 12 12 12 13 13 13 13 14 13 13 13 13 12 13 13 12 12 11 11 11 11 11 12 12 12 15 18 19
10 9 10 12 16 18 17 16 16 16 14 14 16 18 18 17 14 12 12 12 13 13 13 13 13 13 13 14 15 15 15 14 13 14 13 14 14 14 13 13 13 13 13 12 12 12 12 12 13 13 13 13 13 14 14 14 14 14 13 12 11 11 12 12 13 13 14 13 13 12 12 12 12 13 13 13 12 11 11 10 10 10 11 10 11 12 14
11 12 14 15 17 18 18 15 13 11 11 13 15 16 16 15 13 11 11 13 13 14 14 14 14 13 13 14 14 15 14 14 14 14 14 14 13 13 13 13 13 12 12 12 12 11 11 12 12 12 12 12 12 13 13 13 13 14 14 14 14 12 11 12 12 12 12 13 12 11 11 12 13 13 14 14 13 13 13 12 10 10 11 11 11 11 11
15 16 17 16 15 16 16 13 11 10 10 12 14 14 14 14 14 13 13 13 14 14 14 14 13 12 12 14 15 15 14 14 14 14 14 13 12 12 12 11 12 12 12 11 11 11 11 11 10 10 11 11 11 12 11 11 12 12 12 13 14 15 14 13 13 12 12 12 11 11 11 12 13 13 14 14 14 14 13 13 12 11 10 11 11 11 11
18 18 18 16 15 15 14 10 9 10 12 13 14 14 13 14 14 13 12 12 13 14 14 13 12 13 13 14 15 15 14 13 13 13 13 12 12 12 11 11 12 12 11 11 11 10 10 10 10 10 10 10 11 11 11 11 11 11 12 12 13 14 14 13 13 13 12 11 11 11 11 11 12 13 13 14 14 14 14 13 12 11 11 11 11 11 11
19 17 16 16 15 15 14 12 11 13 14 13 14 14 14 14 14 13 13 13 13 13 13 12 12 13 13 14 14 14 13 13 12 12 11 11 10 10 10 10 11 11 11 10 10 9 9 9 10 9 9 9 10 10 10 10 10 10 11 12 12 12 12 12 12 12 12 12 12 11 11 11 11 11 12 13 13 13 13 13 12 12 11 11 10 10 11
15 14 16 17 16 16 16 14 12 12 12 12 13 15 15 14 14 14 14 14 13 13 13 13 13 13 13 14 14 13 12 11 10 10 9 9 9 8 8 9 10 11 11 10 9 8 9 9 10 10 9 9 9 9 9 9 9 10 10 10 10 10 10 10 11 11 11 11 11 11 11 10 10 10 11 11 11 12 12 12 12 11 11 11 10 10 11
17 18 19 20 19 18 17 15 13 12 12 11 12 14 14 14 14 14 14 14 14 14 14 13 13 13 13 13 12 11 10 10 10 10 9 9 9 8 7 8 9 10 10 9 8 8 8 9 11 11 10 9 9 9 8 8 9 9 10 10 10 10 10 10 10 10 10 11 11 11 11 11 10 9 9 10 10 10 10 10 10 10 10 10 10 9 10
21 20 19 19 19 19 18 17 16 16 14 13 13 14 15 15 15 14 14 14 14 14 14 13 13 13 13 13 12 12 12 13 12 12 11 10 10 9 9 9 9 9 9 9 8 8 8 10 12 13 11 10 10 9 9 9 8 8 8 8 8 8 8 8 8 9 9 10 10 10 9 9 9 9 9 9 9 9 9 9 9 8 8 9 9 9 9
19 19 18 19 20 19 18 17 17 16 15 15 15 14 15 15 14 14 14 14 14 14 14 13 13 14 14 13 14 14 13 12 11 10 10 10 10 10 11 10 8 8 8 8 7 7 9 11 13 13 11 10 10 10 10 9 7 6 6 6 6 7 7 6 7 8 8 7 8 8 7 7 7 8 8 8 8 8 8 8 8 7 7 7 7 7 8
18 18 18 18 18 18 16 15 15 15 15 15 15 14 14 14 14 14 14 14 14 14 14 13 14 14 14 13 13 13 12 10 9 9 10 10 9 8 9 8 6 6 8 8 7 8 10 11 10 9 8 9 9 8 8 8 6 5 5 6 5 5 5 5 6 6 6 6 7 7 8 8 7 7 7 7 7 8 8 8 8 7 7 7 6 6 6
17 17 17 16 16 16 15 14 14 15 15 14 14 14 13 14 14 14 14 14 13 13 14 14 15 15 14 13 13 12 10 9 9 8 8 9 7 6 6 6 5 6 9 10 8 8 10 10 7 6 7 8 7 6 6 6 6 5 4 5 4 4 4 5 5 5 5 5 5 5 6 7 7 6 6 7 7 7 7 7 7 7 8 8 7 6 5
16 16 16 15 15 15 14 13 13 13 13 13 14 14 14 14 15 14 14 14 13 13 14 15 14 13 13 12 12 12 10 9 8 8 9 8 7 6 6 7 6 7 9 9 8 8 11 9 6 5 6 6 5 5 5 4 4 4 4 4 4 4 3 3 4 4 4 4 3 3 5 6 6 5 6 6 6 6 7 7 7 8 8 7 7 6 5
16 16 16 15 14 14 14 13 12 11 11 13 14 15 15 15 14 15 15 14 13 12 14 14 13 12 13 12 12 12 11 9 8 8 7 7 7 7 7 8 7 8 9 8 7 8 10 7 4 5 6 5 4 5 5 3 3 3 4 4 4 4 3 3 3 3 3 3 3 4 4 5 5 5 5 6 6 6 6 7 7 8 8 8 7 7 6
17 17 16 15 14 14 13 13 12 11 11 12 14 15 15 14 14 15 15 15 13 12 11 10 9 10 11 12 12 12 11 9 8 7 6 4 4 5 8 9 9 8 9 9 8 8 8 6 5 5 6 5 5 6 5 3 2 3 3 3 3 3 3 3 3 2 2 2 3 3 4 4 4 5 5 5 5 5 5 6 7 7 7 7 7 7 7
17 16 15 14 14 13 13 13 13 12 12 12 14 16 16 15 14 14 15 14 13 12 11 9 9 9 10 11 11 11 10 9 8 7 6 4 3 3 5 8 9 8 9 9 9 7 7 6 5 6 6 6 6 5 4 2 1 1 2 1 1 1 1 2 1 0 1 1 2 2 3 3 4 4 4 5 6 5 5 6 6 6 7 7 7 7 8
16 15 14 14 13 13 13 13 13 14 14 14 14 16 16 14 13 14 14 14 13 12 11 11 11 11 10 10 10 10 10 9 9 8 7 7 6 5 5 7 7 8 9 9 8 7 6 6 6 6 6 6 5 4 3 2 2 1 1 1 1 1 1 1 1 1 1 1 2 3 3 3 4 5 5 5 5 5 5 5 6 6 6 7 7 7 7
15 15 15 14 14 13 13 13 14 15 15 15 15 15 16 15 14 13 13 13 12 11 11 11 11 11 11 11 10 9 8 9 8 7 7 6 6 7 8 9 8 8 8 9 8 7 6 7 8 7 6 5 5 4 3 3 3 2 2 2 2 2 2 2 2 2 2 2 2 3 3 4 4 5 5 5 5 5 5 5 5 6 6 6 7 7 7
14 14 15 15 15 14 14 14 14 15 17 17 16 15 15 15 14 13 13 12 12 12 11 11 11 12 12 11 10 8 7 7 6 6 5 3 3 5 7 8 9 9 10 10 9 8 7 8 10 9 7 6 6 5 5 4 4 3 3 3 3 3 4 4 3 4 4 4 3 3 4 5 5 5 5 5 5 5 4 4 5 6 7 7 8 8 8
14 13 14 16 16 15 14 13 13 15 17 17 16 15 15 15 14 14 12 11 11 11 11 11 11 11 11 10 9 8 8 7 7 7 6 5 3 4 5 6 8 9 11 11 11 10 10 10 10 10 9 9 8 7 7 6 5 4 4 5 4 4 4 4 4 5 5 4 4 4 5 5 5 5 5 4 5 5 4 5 6 7 7 7 7 7 7
14 13 14 16 16 15 14 14 14 16 17 17 16 16 16 16 15 13 12 11 10 11 11 11 10 10 10 9 8 7 6 6 6 6 7 7 6 6 7 7 8 8 10 11 12 13 13 13 12 12 11 11 11 10 9 8 7 6 6 5 5 5 5 5 5 5 5 5 5 6 6 6 6 6 5 5 5 5 4 5 6 6 6 6 7 7 7
14 14 15 16 16 16 15 15 15 15 16 16 16 16 17 16 15 13 12 11 11 12 12 11 11 10 9 9 8 7 6 6 6 4 4 5 5 6 6 7 8 8 9 10 11 11 13 14 14 14 13 14 13 12 10 9 8 8 7 7 6 6 6 6 5 5 6 6 6 7 7 6 6 6 6 6 6 6 5 5 6 5 5 6 7 7 7
14 14 15 16 17 16 16 16 16 15 16 16 15 15 16 16 15 14 13 13 13 12 12 12 11 11 10 9 8 7 7 7 7 6 4 4 5 5 5 5 6 7 8 8 9 9 10 12 14 16 16 16 15 13 12 10 9 9 9 9 8 8 8 8 8 8 8 8 8 8 8 8 8 7 7 7 7 7 7 7 6 6 7 7 7 7 7
14 15 17 17 17 16 16 16 16 15 15 15 14 14 15 15 15 14 14 14 13 12 12 11 11 11 10 9 9 8 7 7 8 8 7 6 6 6 6 6 7 7 7 8 8 8 9 10 12 15 17 18 17 15 14 13 12 10 10 10 10 9 9 9 10 10 10 10 10 9 9 10 9 9 9 9 9 9 8 8 8 8 9 9 8 8 8
16 17 18 18 17 16 16 16 15 14 15 14 14 14 15 15 14 13 13 14 14 13 12 11 11 11 11 10 10 9 9 9 9 10 9 9 8 7 7 8 8 8 8 8 8 9 9 9 10 12 15 17 17 16 15 15 15 13 12 12 12 11 11 11 11 10 10 10 11 11 11 11 11 11 11 11 10 10 11 11 11 11 11 11 11 10 9
Wind_Direction
70 68 59 49 99 113 119 123 133 143 159 196 201 191 151 175 199 188 156 150 146 150 154 149 141 136 130 126 125 123 123 121 117 114 107 104 100 80 64 56 44 32 22 19 19 16 13 11 9 8 9 13 17 16 13 10 5 358 353 351 354 359 1 358 352 348 344 340 333 324 319 318 312 299 284 274 262 249 242 239 235 230 218 201 183 180 191
75 67 68 92 113 113 104 96 102 114 116 135 146 121 87 79 111 137 137 122 90 108 137 132 124 123 120 117 117 119 122 120 117 114 109 108 104 86 67 57 50 35 26 24 19 18 16 10 9 9 7 11 15 15 15 10 3 1 358 354 357 5 7 2 355 352 353 353 350 343 340 337 335 325 298 279 262 248 247 242 235 230 208 183 174 176 183
78 75 97 113 122 116 103 89 86 105 107 93 93 95 73 71 110 126 126 115 89 73 107 112 114 114 114 115 113 116 120 117 114 111 109 110 108 95 78 67 54 37 32 26 17 15 13 8 10 11 7 8 11 11 12 8 4 6 5 2 4 9 10 7 2 0 3 6 8 8 8 5 4 358 331 311 283 259 258 244 230 220 197 187 185 179 175
111 106 123 127 126 116 101 88 76 83 100 92 79 72 36 22 128 135 131 127 133 132 116 110 111 114 115 115 115 115 113 110 110 109 108 112 110 91 76 65 50 39 35 27 14 7 3 5 13 13 10 10 9 7 7 4 6 10 9 8 9 10 10 9 8 9 11 14 17 18 20 23 25 23 14 10 342 272 261 220 206 205 199 195 189 182 179
128 139 143 134 144 145 118 88 64 55 88 102 95 83 42 5 26 140 132 111 123 133 131 119 113 113 111 110 115 118 113 109 108 108 111 113 105 86 77 66 55 46 35 23 12 3 357 1 7 9 9 9 6 4 6 7 11 16 17 16 14 12 12 12 13 14 16 20 23 22 23 24 25 28 34 44 46 322 302 180 180 180 183 185 186 188 186
137 147 148 160 182 178 142 85 52 39 72 98 100 90 56 28 34 81 87 102 122 133 135 126 118 112 106 103 105 107 111 115 113 111 114 111 101 96 89 75 64 49 33 21 11 1 356 356 358 4 9 6 3 7 12 15 16 19 23 23 20 17 15 13 13 16 18 24 28 27 27 27 28 31 43 68 86 75 93 143 159 166 176 181 180 182 183
134 139 164 186 190 172 107 147 148 64 72 98 100 91 71 59 77 93 98 111 124 123 118 116 113 109 104 96 88 88 101 111 114 117 116 107 107 109 96 82 67 50 34 21 8 359 355 352 357 10 13 7 7 15 21 22 21 21 25 27 25 21 17 12 11 13 17 23 29 32 33 34 37 39 48 73 89 93 107 123 130 143 154 157 161 169 175
134 163 190 187 162 109 112 149 147 126 126 131 122 100 88 91 97 107 112 113 112 112 111 110 112 112 104 87 75 78 92 101 110 117 112 96 95 96 86 77 65 51 40 27 8 354 351 357 11 19 13 7 14 22 25 28 28 26 27 28 26 22 16 12 12 14 17 22 28 34 37 39 42 44 47 62 84 96 106 113 114 115 115 114 119 132 150
175 178 164 117 120 157 165 160 166 165 151 159 165 98 113 134 129 121 126 124 117 116 117 119 124 121 104 83 70 76 90 97 104 107 103 94 82 80 81 77 68 61 52 37 11 352 359 18 26 21 13 13 23 27 27 29 30 29 28 29 27 22 17 14 13 14 18 22 27 33 38 41 45 49 49 52 68 89 102 107 105 102 101 101 100 101 108
226 177 148 152 180 182 162 140 147 154 146 174 240 118 128 150 154 141 138 135 130 128 129 135 141 135 108 86 84 96 101 104 105 104 101 92 77 77 83 83 78 70 58 44 24 12 24 35 32 26 25 26 32 33 28 28 30 28 27 28 26 22 19 17 14 17 21 23 27 32 37 42 45 48 52 51 50 69 95 104 101 98 99 99 97 94 90
196 191 186 189 186 137 125 135 139 146 144 131 229 218 160 146 157 154 144 142 142 142 144 148 153 154 138 125 131 130 122 114 109 108 101 87 78 76 78 80 79 71 61 53 43 33 33 35 32 33 38 39 41 38 32 30 31 29 26 27 26 24 23 22 20 22 26 27 29 33 37 41 44 46 50 54 53 63 83 93 95 95 94 94 92 88 83
180 205 207 185 91 75 119 141 144 144 134 154 220 218 171 143 158 158 147 148 149 148 150 151 152 165 149 141 138 132 124 115 108 105 95 82 76 75 71 69 71 71 63 54 47 35 29 31 32 34 43 48 47 42 37 36 34 28 26 29 31 30 30 30 29 28 31 33 35 38 40 40 43 46 48 53 58 65 74 83 90 92 90 88 87 84 84
178 201 201 143 85 95 127 140 142 144 167 215 212 201 121 136 151 148 144 147 145 146 151 148 114 62 99 121 127 126 121 113 104 98 90 75 67 68 67 62 67 77 72 60 52 38 27 29 32 36 47 54 51 46 44 40 34 28 27 33 38 38 38 40 39 37 41 44 43 42 43 45 46 47 48 50 54 60 65 73 84 88 88 86 85 83 84
170 192 190 149 101 91 134 143 143 160 219 205 143 93 115 138 141 136 136 137 137 138 133 120 111 105 108 117 124 124 117 108 101 96 86 70 58 58 62 60 62 75 77 68 60 47 32 28 31 38 50 58 55 50 46 41 35 33 35 39 45 46 45 47 46 46 51 57 56 49 47 51 51 48 49 53 55 58 62 68 77 82 84 83 82 80 80
154 176 181 171 130 129 155 158 152 143 331 90 111 118 129 131 130 130 131 130 129 125 116 113 117 117 116 119 121 119 114 106 99 91 76 64 57 54 57 54 50 64 77 71 60 48 37 31 31 38 52 60 60 54 48 41 38 41 43 45 50 52 52 53 53 52 55 60 63 63 61 61 60 55 53 56 57 58 61 66 70 72 75 77 77 74 71
229 185 160 101 100 119 135 146 122 86 69 96 129 129 124 126 130 129 125 123 122 120 119 121 121 119 119 120 120 120 118 108 98 86 70 61 56 57 61 54 50 68 81 78 68 57 44 38 39 44 54 59 59 54 48 43 43 47 48 50 54 55 57 58 59 58 58 59 62 66 68 69 67 63 61 61 59 57 60 65 68 68 70 73 72 69 67
32 78 83 88 112 114 94 59 76 99 98 104 127 127 125 131 132 128 125 123 121 121 122 123 121 121 121 121 121 120 115 106 99 90 80 68 52 47 52 55 67 77 78 75 72 64 51 45 46 50 53 56 57 54 51 49 51 53 52 54 57 58 58 60 62 63 62 59 60 62 65 69 70 67 65 63 60 58 61 65 68 69 71 73 71 68 66
99 73 73 99 119 114 91 72 82 103 108 114 122 124 125 128 127 126 126 124 124 126 125 122 122 124 123 121 119 116 110 106 103 98 92 82 64 52 55 67 83 87 83 79 75 66 58 54 53 53 53 55 56 56 55 56 57 57 58 59 61 60 60 60 61 61 61 59 58 59 60 63 67 67 67 67 63 60 60 63 65 68 70 71 71 69 67
159 103 89 105 121 121 105 87 91 103 111 118 122 122 124 125 122 121 123 125 128 128 126 123 124 125 124 121 118 116 113 111 107 101 97 88 74 71 72 78 88 90 87 85 80 72 66 62 60 58 57 56 56 57 58 60 59 59 60 61 62 63 62 62 60 59 60 59 58 59 60 61 63 64 66 68 67 63 60 60 62 64 65 66 67 69 68
121 98 113 119 113 111 102 93 106 117 118 120 121 121 123 122 120 120 123 126 127 127 126 126 125 126 126 125 122 119 115 110 105 101 97 89 81 81 77 77 88 93 89 84 78 73 70 66 64 63 59 56 56 56 59 63 62 61 59 59 62 64 64 64 63 61 62 63 62 62 63 64 63 62 61 64 66 65 64 63 63 64 64 66 68 69 69
98 105 134 136 116 102 95 94 108 118 121 123 123 123 123 122 121 121 122 123 125 127 129 128 127 127 127 125 123 120 112 105 99 94 91 86 78 75 72 71 82 92 92 87 81 76 73 70 67 64 61 58 56 56 60 65 65 63 62 60 61 64 64 65 66 64 64 66 67 66 67 66 65 63 61 61 64 65 65 66 67 67 66 67 67 69 69
159 156 160 158 137 122 123 116 115 120 125 126 124 123 123 124 125 124 122 122 123 125 128 130 129 127 126 125 124 119 111 105 100 95 93 86 75 75 77 77 82 90 94 93 88 82 78 73 69 66 62 58 57 58 62 67 67 66 67 65 63 63 63 63 65 66 66 67 68 69 72 72 69 66 64 64 65 65 65 65 67 69 68 67 66 68 69
104 139 154 159 127 118 126 124 120 123 128 128 125 124 124 124 125 126 126 126 126 125 126 127 127 126 126 127 124 118 112 110 107 103 100 95 90 94 95 90 87 88 89 88 84 80 78 75 71 68 62 57 57 58 60 66 69 68 68 69 68 67 65 61 61 65 67 68 68 69 72 74 76 74 70 68 66 65 65 66 68 70 72 73 72 71 71
91 126 144 140 116 117 123 123 121 123 126 125 123 123 123 123 125 127 127 127 128 126 122 119 119 121 123 122 120 119 117 114 112 107 100 98 101 107 106 99 91 85 80 78 77 75 75 73 70 67 61 55 55 58 60 67 71 70 69 72 73 72 69 65 62 63 66 65 66 67 68 69 72 76 76 74 69 65 64 64 65 68 71 74 75 74 72
123 127 124 115 113 115 117 115 116 118 120 120 119 121 123 125 126 126 123 120 121 121 117 110 107 110 112 111 112 115 113 112 111 104 95 94 101 107 107 103 98 92 84 78 76 74 73 72 70 67 63 58 55 58 64 71 74 72 70 71 72 73 71 68 66 65 65 64 62 62 64 64 64 66 69 71 72 71 69 67 65 64 64 66 68 71 71
123 118 112 108 108 113 115 113 112 115 118 118 117 120 122 122 121 120 118 117 118 117 114 111 110 109 109 108 111 113 112 113 112 103 95 97 103 105 104 101 98 95 88 78 75 74 73 72 72 69 66 62 58 62 72 78 79 77 75 73 73 73 69 68 68 67 65 65 64 63 63 63 63 63 64 64 66 70 71 69 65 62 59 57 58 61 62
124 123 118 112 111 116 118 117 118 119 116 114 113 114 114 112 110 110 110 113 115 113 110 111 115 117 115 113 114 117 120 119 111 100 96 99 101 101 101 100 97 95 90 82 78 78 75 74 74 71 69 68 68 72 79 81 82 82 81 78 77 74 69 66 68 69 67 67 67 66 65 64 62 61 61 61 62 64 65 65 65 64 61 56 53 53 54
124 125 120 118 122 121 112 110 111 109 104 103 107 110 111 111 110 109 108 111 114 115 115 118 121 123 124 125 125 127 128 122 110 103 100 101 101 102 102 101 97 95 92 88 86 84 81 78 76 73 73 76 78 80 82 81 80 80 79 77 76 74 69 66 66 67 68 67 66 64 63 63 62 59 57 55 57 59 61 63 64 65 66 65 59 53 50
105 101 101 109 116 114 106 101 101 101 102 108 113 116 118 117 113 111 113 117 121 123 126 128 128 127 130 134 136 135 130 121 113 110 107 105 105 105 104 102 99 95 92 91 90 89 89 86 81 76 76 78 82 84 82 80 77 75 71 69 69 69 69 70 72 73 72 70 68 64 61 60 59 57 55 53 53 55 57 59 61 61 63 66 64 56 50
104 104 105 108 112 112 108 105 103 104 110 117 119 121 122 120 118 119 124 129 131 129 128 128 126 125 128 133 135 134 128 122 118 117 114 111 110 109 107 105 102 96 93 93 93 93 95 94 88 80 78 82 86 87 85 82 80 78 74 71 70 71 70 69 75 79 76 72 69 66 61 58 57 55 54 53 53 55 57 57 60 62 62 60 57 52 47
112 110 110 110 110 109 107 107 107 108 114 122 127 129 129 128 128 129 131 133 132 129 126 124 122 121 124 127 129 129 126 122 120 118 114 113 111 108 105 103 100 97 96 96 96 96 99 100 93 84 84 88 90 89 87 85 82 82 81 79 79 80 79 75 75 77 74 70 68 63 60 61 60 57 56 55 53 54 56 56 56 59 61 60 54 48 42
117 113 112 113 112 110 109 112 117 123 130 135 135 133 133 132 130 128 128 129 128 128 126 122 118 119 123 126 128 128 125 123 122 120 117 115 111 106 102 99 99 100 100 99 97 97 99 99 96 90 88 91 93 91 88 84 81 79 80 83 83 83 82 80 79 77 73 70 67 63 61 63 62 59 56 55 54 53 53 54 54 53 52 54 52 45 40
127 124 124 126 125 124 127 133 137 136 136 135 132 130 130 130 127 124 124 126 127 127 125 120 118 122 127 128 129 129 127 125 123 121 118 115 111 107 105 103 102 103 102 100 97 94 92 92 95 94 90 89 93 92 87 82 81 80 82 86 90 88 85 82 82 80 76 70 67 65 64 64 63 61 59 56 54 53 51 50 51 50 48 49 50 43 37
130 130 135 138 138 137 139 141 140 136 133 130 130 131 132 131 128 126 126 128 127 125 123 122 123 127 129 129 130 130 129 126 122 118 117 117 115 113 111 110 111 109 105 101 95 88 86 91 97 99 96 92 93 93 89 84 82 82 84 88 92 92 88 84 80 77 74 71 69 67 65 62 59 59 58 55 53 53 51 47 46 47 46 46 47 42 36
132 132 136 139 138 136 135 134 133 133 134 133 133 133 132 130 128 126 126 126 124 123 124 126 127 127 127 128 128 125 120 117 116 117 119 123 127 126 120 116 117 114 105 96 91 86 90 100 105 104 101 97 96 95 93 88 85 86 89 89 88 87 87 84 80 75 72 72 70 65 63 63 60 53 51 51 49 49 49 46 41 40 40 40 40 38 37
137 135 135 136 135 133 133 133 134 135 135 134 133 132 131 129 127 125 124 123 124 127 129 129 128 126 125 124 122 120 119 120 122 125 124 125 130 131 124 117 119 117 106 95 91 90 98 106 106 103 100 98 96 96 97 94 91 91 93 93 93 92 89 86 83 79 75 74 73 68 69 75 71 56 48 48 45 40 39 38 34 32 33 33 31 30 31
137 136 134 135 136 136 134 134 136 135 133 132 133 133 132 130 128 126 125 125 128 131 132 131 130 128 125 124 124 125 126 127 128 127 122 119 121 124 125 127 126 120 110 102 98 105 115 113 105 101 101 99 95 95 98 100 98 95 95 93 90 89 88 86 84 84 81 77 73 66 62 64 62 52 46 47 44 37 30 28 24 21 21 24 25 25 28
136 135 135 136 138 137 134 133 134 133 133 133 134 136 135 132 130 129 128 128 130 132 132 131 129 128 128 128 128 127 126 127 127 127 125 124 124 126 130 133 127 116 118 120 117 122 129 125 111 102 105 105 100 97 100 100 93 85 88 89 83 81 85 83 80 81 79 71 64 58 51 46 43 43 43 43 40 35 30 25 20 17 16 17 17 17 20
140 140 140 141 140 138 136 135 134 135 137 138 137 137 137 137 135 133 130 129 131 133 134 132 130 131 131 130 128 127 128 130 134 138 135 132 134 133 121 112 104 114 126 130 128 134 141 139 126 113 115 114 108 105 106 101 88 76 77 84 81 77 82 84 84 86 82 69 56 50 46 42 39 37 36 34 32 33 33 29 22 18 17 14 13 13 12
146 146 147 146 144 143 143 142 140 140 143 144 143 144 144 143 140 135 132 132 134 136 136 135 134 134 135 132 130 130 133 137 143 145 139 137 147 148 124 112 120 137 137 132 132 143 148 146 135 126 130 129 119 115 113 102 87 80 80 81 79 77 78 82 87 91 86 76 62 46 42 42 40 35 28 23 23 27 29 25 22 20 17 14 12 10 5
150 152 153 152 150 150 150 148 145 143 144 147 150 152 151 148 144 140 138 140 141 141 141 141 140 139 139 137 133 132 135 140 145 148 150 156 162 152 129 124 140 155 152 148 150 152 149 148 146 140 136 135 135 135 132 112 85 87 86 78 76 77 75 76 81 81 75 68 59 46 36 30 28 26 19 11 13 18 17 13 15 17 15 12 10 6 357
156 158 159 158 157 156 154 152 151 150 148 148 152 156 156 153 148 144 144 146 149 151 151 148 142 139 140 139 137 136 139 143 147 153 164 172 151 125 121 133 153 165 162 156 160 161 156 157 162 151 141 142 150 151 147 135 99 98 94 82 77 76 75 82 93 96 83 67 51 41 31 13 6 11 8 357 356 3 1 358 2 7 5 4 3 358 353
162 164 166 164 163 163 161 159 159 158 154 152 156 160 161 158 153 149 149 152 156 160 160 157 153 149 147 147 147 146 147 150 155 161 168 168 147 117 118 134 154 171 168 160 165 174 170 166 170 166 160 165 169 161 156 161 151 116 104 92 88 83 80 86 90 75 75 64 30 14 10 353 343 346 345 340 341 345 342 340 345 350 349 349 349 348 347
170 173 174 170 169 169 168 166 166 165 161 159 162 164 166 165 161 158 158 160 164 167 166 166 167 167 165 165 164 160 158 162 168 169 166 165 168 170 158 149 161 177 176 172 181 189 175 170 186 191 179 174 176 172 171 198 220 209 186 206 224 234 217 206 242 271 294 332 333 339 347 339 328 325 326 327 328 326 321 323 329 333 334 335 335 334 335
178 181 178 173 171 173 172 171 171 170 165 162 164 168 172 172 169 167 167 168 171 173 173 173 174 176 177 179 180 175 169 169 171 172 174 173 165 165 168 175 184 191 187 184 193 199 189 189 202 208 197 189 196 198 200 220 237 237 232 237 241 240 246 248 249 255 264 268 282 304 315 316 315 317 318 317 314 309 307 312 317 317 317 320 323 325 327
179 179 176 174 175 176 175 173 171 168 166 165 167 172 177 177 175 174 176 175 173 176 179 179 179 180 182 183 182 179 176 175 177 184 198 194 132 135 158 178 191 200 203 200 199 203 207 210 213 215 213 212 216 218 224 235 243 241 241 249 249 245 247 251 247 246 250 251 259 285 303 310 314 315 312 305 302 298 292 288 290 297 304 310 313 314 314
172 173 176 178 178 174 171 169 167 166 169 172 174 176 179 182 181 181 182 181 178 179 179 178 178 180 182 183 183 183 183 187 191 197 206 213 198 179 189 199 200 203 209 212 210 211 216 220 221 221 221 222 223 226 231 238 242 243 245 249 250 249 252 252 248 248 250 247 249 261 270 276 288 299 300 290 285 283 276 271 278 290 300 304 301 299 301
171 174 178 178 172 165 164 168 171 172 174 177 177 176 179 184 186 186 187 188 187 186 185 184 184 186 187 191 197 201 204 211 212 202 196 205 213 211 210 215 215 210 209 215 219 221 222 223 224 226 228 229 229 230 234 238 241 244 247 248 247 250 253 251 248 251 252 246 246 254 262 270 282 291 293 287 282 278 274 275 279 287 296 301 297 296 299
174 175 174 171 166 165 168 174 177 177 178 179 179 176 178 183 187 189 190 190 191 191 191 192 193 195 198 203 211 216 218 226 233 222 189 189 205 207 202 209 219 219 215 219 225 228 228 227 226 226 229 232 230 230 234 239 240 240 245 249 249 250 253 254 254 259 262 258 255 258 262 268 275 280 282 283 281 277 275 277 278 282 295 304 300 293 290
170 172 171 170 170 173 177 180 182 182 182 183 182 178 178 183 188 190 190 191 193 195 196 196 196 198 201 204 208 213 215 216 221 219 204 194 202 205 198 200 213 221 221 222 226 231 234 234 229 226 228 231 231 229 233 238 238 239 242 246 247 248 250 250 250 254 257 257 258 259 259 260 263 268 271 274 275 274 274 275 275 278 288 295 294 287 285
170 176 176 175 176 179 182 184 186 186 186 187 185 181 182 188 195 196 194 195 197 198 200 201 201 200 201 202 204 209 213 213 212 213 211 208 208 212 214 217 225 232 233 233 233 234 236 238 236 232 230 231 230 230 232 236 238 240 242 242 243 247 248 248 248 251 251 250 252 256 258 258 259 260 262 265 266 266 267 270 272 275 281 286 287 287 288
178 180 179 177 178 181 182 184 185 185 185 185 184 183 186 192 196 194 192 196 201 202 203 205 204 201 200 205 210 212 212 213 214 215 216 216 220 226 229 229 232 234 235 237 240 239 234 235 240 242 237 232 230 231 234 236 238 241 242 241 242 244 245 245 248 253 252 250 251 256 258 258 257 258 262 265 264 263 264 269 272 275 277 279 281 281 281